Regional Weather Roundup
Issued by NWS

Home | Current Version | Previous Version | Text Only | Print | Product List | Glossary Off
Versions: 1 2 3 4 5 6 7 8 9 10 11 12 13 14 15 16 17 18 19 20 21 22 23 24 25 26 27 28 29 30 31 32 33 34 35 36 37 38 39 40 41 42 43 44 45 46 47 48 49 50

000
ASUS45 KTFX 031210
RWRMT
MONTANA REGIONAL WEATHER ROUNDUP
NATIONAL WEATHER SERVICE GREAT FALLS MT
600 AM MDT WED JUN 03 2015

NOTE: "FAIR" INDICATES FEW OR NO CLOUDS BELOW 12000 FEET WITH NO
SIGNIFICANT WEATHER AND/OR OBSTRUCTIONS TO VISIBILITY.

MTZ001>007-043-031300-
WEST OF THE DIVIDE

CITY           SKY/WX    TMP DP  RH WIND       PRES   REMARKS
KALISPELL      CLOUDY    47  47 100 CALM      29.99S FOG
MISSOULA       MOCLDY    46  44  93 CALM      30.02S
BUTTE          CLEAR     37  35  92 S6        30.06R
MULLAN PASS    CLOUDY    39  38  96 S5        30.03S
$$

MTZ008-052>055-031300-
SOUTHWEST MONTANA

CITY           SKY/WX    TMP DP  RH WIND       PRES   REMARKS
BOZEMAN        PTCLDY    44  42  93 SE8       30.03R
DILLON         MOCLDY    45  42  89 S6        30.03S
W YELLOWSTONE  FOG       32  32 100 CALM      30.09S VSB<1/4
$$

MTZ009-010-012-014-046-048-049-054-031300-
EAST SLOPES AND CENTRAL MONTANA

CITY           SKY/WX    TMP DP  RH WIND       PRES   REMARKS
CUT BANK       MOCLDY    41  41 100 E5        29.96S FOG
GREAT FALLS    PTCLDY    45  44  97 SW7       29.97S
MALMSTROM AFB  CLEAR     46  46 100 SW3G15    29.98S
HELENA         MOCLDY    51  47  86 CALM      30.00R
$$

MTZ011-013-016-021-045-047-050-051-031300-
NORTH CENTRAL MONTANA

CITY           SKY/WX    TMP DP  RH WIND       PRES   REMARKS
HAVRE          FOG       45  45 100 S3        29.96R VSB<1/4
LEWISTOWN      CLEAR     46  43  89 SE6       29.99R
N BAR RANCH    FAIR      43  41  93 W3        30.02S
$$

MTZ017>020-022>027-061-062-031300-
NORTHEAST MONTANA

CITY           SKY/WX    TMP DP  RH WIND       PRES   REMARKS
GLASGOW        CLOUDY    54  51  90 E12       29.99R
JORDAN           N/A     48  48 100 E6        29.99R
SIDNEY         CLEAR     50  46  87 N6        30.02R
WOLF POINT     CLOUDY    52  49  89 VRB5      30.02R FOG
$$

MTZ028>42-056>058-031300-
SOUTHCENTRAL AND SOUTHEAST MONTANA

CITY           SKY/WX    TMP DP  RH WIND       PRES   REMARKS
BAKER          CLOUDY    52  48  86 N8        30.01R
BILLINGS       FOG       50  49  96 CALM      29.99S VSB 1/2
LIVINGSTON     CLEAR     46  43  89 NW9       30.01S
MILES CITY     PTCLDY    50  49  96 NE6       30.00R
$$

REGIONAL REPORTS...DAKOTAS

CITY           SKY/WX    TMP DP  RH WIND       PRES   REMARKS
WILLISTON      CLEAR     49  47  93 NE6       30.02R
MINOT          CLOUDY    50  46  86 NW9       29.96S
DICKINSON      LGT RAIN  49  47  93 N14       29.98R FOG
BEACH          CLOUDY    50  50 100 NE9       30.01R
CROSBY         FAIR      45  45 100 NW5       30.03R
WATFORD CITY   CLOUDY    50  48  93 NE5       29.99R
BISMARCK       CLOUDY    50  45  83 N15G23    29.93R
GRAND FORKS    CLOUDY    54  52  93 NW15      29.79R
FARGO          CLOUDY    61  59  93 NW15      29.72R FOG
BUFFALO SD       N/A     53  48  83 N16       29.93R
RAPID CITY     CLEAR     54  51  90 N12       29.96R
$$

REGIONAL REPORTS...WYOMING/IDAHO/WASHINGTON

CITY           SKY/WX    TMP DP  RH WIND       PRES   REMARKS
GILLETTE       CLEAR     49  48  97 S3        30.01R
SHERIDAN       PTCLDY    48  44  86 CALM      29.98S
BUFFALO WY     MOCLDY    49  45  86 N3        30.03R
CODY           CLEAR     48  43  81 SW6       30.02S
YELLOWSTONE LA   N/A     30  28  92 CALM      30.14S
IDAHO FALLS    CLEAR     42  39  89 N6        30.01R
SALMON           N/A     43  39  87 CALM      30.02R
BOISE          CLOUDY    51  47  86 CALM      29.98S
SPOKANE        MOCLDY    50  43  77 S13       29.98R
$$

REGIONAL REPORTS...ALBERTA

CITY           SKY/WX    TMP DP  RH WIND       PRES   REMARKS
CALGARY        LGT RAIN  48  46  93 SE12      29.91S FOG
LETHBRIDGE     MOCLDY    48  46  93 SE3       29.92S
MEDICINE HAT   CLOUDY    54  50  87 E3        29.96R
$$

REGIONAL REPORTS...SASKATCHEWAN

CITY           SKY/WX    TMP DP  RH WIND       PRES   REMARKS
SWIFT CURRENT  CLOUDY    50  36  57 E7        29.99R
REGINA         MOCLDY    48  41  76 SE9       30.02R
SASKATOON      CLOUDY    46  36  66 NE6       30.04R
$$



USA.gov is the U.S. government's official web portal to all federal, state and local government web resources and services.